sat.trackr.live / text

‹ back to catalog

STARLINK-4799

NORAD 53860 · 2022-114AU

PAYLOAD ACTIVE UNKNOWN

§ Identity

Operator
Country
US
Launch date
2022-09-19
Launch site
AFETR
Launch vehicle
Mass (kg)
RCS (m²)

Purposes: comms

External: N2YO · Heavens-Above · Gunter

§ Orbital elements

Epoch: 2026-05-25T03:40:57.432864Z

Period
95.44 min
Inclination
53.2135°
Eccentricity
0.0001094
Mean motion
15.08839307 rev/d
Perigee alt
539.0 km
Apogee alt
540.5 km
Semi-major
6,917.9 km
B*
5.0954e-5
RAAN
300.9764°
Arg perigee
86.1673°
Mean anomaly
273.9445°
Rev number
20,441

§ Raw data

STARLINK-47991 53860U 22114AU  26145.15344251  .00000523  00000+0  50954-4 0  99912 53860  53.2135 300.9764 0001094  86.1673 273.9445 15.08839307204416

JSON: /api/v1/satellites/53860 · /tle

For live sub-satellite position, see the globe view (requires WebGL).

§ Visibility from observer

Set your observer location to see the next 7 days of passes ≥ 10°. The values pass through the URL so the page stays shareable.

No JS? Fill the form by hand. The geolocation button needs JavaScript.